Location: Lalanga
(4.5882°N, 32.9072°E)
Time: 14:58:10
(UTC+00:00)

ARIANE 5 R/B - Pass Details

Date: 24 January 2020
Orbit: 268 x 32662 km, 4.4° (Epoch: 22 February)

Event Time Altitude Azimuth Distance (km) Brightness Sun altitude
Rises 17:00:40 0° 254° (WSW) 1,919 7.0 -15.7°
Reaches altitude 10° 17:01:57 10° 247° (WSW) 1,267 5.5 -16.0°
Maximum altitude 17:04:11 50° 168° (SSE) 658 2.7 -16.6°
Enters shadow 17:06:58 23° 100° (E) 1,788 4.4 -17.2°
